Location: Newark
(25.6108°S, 54.5803°W)
Time: 16:31:26
(UTC+00:00)

Vanguard 1 Rocket - Visible Passes

Search period start: 21 October 2020 00:00
Search period end: 31 October 2020 00:00
Orbit: 656 x 4221 km, 34.3° (Epoch: 20 October)

Date Brightness Start Highest point End Pass type
(mag) Time Alt. Az. Time Alt. Az. Time Alt. Az.
21 Oct 10.4 00:00:38 10° NNW 00:19:45 50° NE 00:44:07 10° ESE visible
21 Oct 10.3 02:27:40 10° WNW 02:52:34 88° SSW 03:16:19 10° ESE visible
21 Oct 10.4 05:01:37 10° W 05:28:11 67° S 05:45:32 10° ESE visible
21 Oct 9.8 07:38:51 10° WSW 08:01:19 78° SSE 08:12:41 10° ENE visible
21 Oct 10.6 22:50:44 10° N 23:06:10 33° NE 23:27:04 10° ESE visible
22 Oct 10.3 01:14:34 10° NW 01:36:45 77° NNE 02:02:19 10° ESE visible
22 Oct 10.4 03:45:28 10° W 04:11:55 72° SSW 04:32:48 10° ESE visible
22 Oct 10.1 06:21:50 10° WSW 06:47:02 70° S 07:01:11 10° E visible
22 Oct 10.9 21:43:14 10° NNE 21:53:28 18° NE 22:06:35 10° E visible
23 Oct 10.3 00:02:50 10° NW 00:21:52 59° NE 00:47:18 10° ESE visible
23 Oct 10.4 02:30:41 10° WNW 02:55:24 81° SSW 03:19:25 10° ESE visible
23 Oct 10.4 05:04:57 10° W 05:31:34 67° S 05:49:00 10° E visible
23 Oct 9.7 07:41:42 10° WSW 08:04:28 87° SSE 08:16:00 10° ENE visible
23 Oct 10.4 22:52:25 10° NNW 23:08:10 41° NE 23:30:49 10° ESE visible
24 Oct 10.3 01:17:19 10° WNW 01:39:17 86° NNE 02:05:18 10° ESE visible
24 Oct 10.5 03:48:48 10° W 04:15:10 69° S 04:36:09 10° ESE visible
24 Oct 10.1 06:24:54 10° WSW 06:50:22 75° SSE 07:04:38 10° E visible
24 Oct 10.7 21:43:45 10° N 21:55:32 24° NE 22:12:01 10° E visible
25 Oct 10.2 00:05:17 10° NW 00:24:07 69° NE 00:50:18 10° ESE visible
25 Oct 10.5 02:33:52 10° WNW 02:58:25 76° SSW 03:22:35 10° ESE visible
25 Oct 10.4 05:08:14 10° WSW 05:34:57 69° S 05:52:29 10° E visible
25 Oct 9.7 07:44:30 10° WSW 08:07:25 82° NNW 08:19:11 10° NE visible
25 Oct 10.3 22:54:30 10° NNW 23:10:12 50° NE 23:34:09 10° ESE visible
26 Oct 10.4 01:20:17 10° WNW 01:42:00 87° SSW 02:08:17 10° ESE visible
26 Oct 10.5 03:52:11 10° W 04:18:30 68° S 04:39:33 10° E visible
26 Oct 10.1 06:27:52 10° WSW 06:53:32 82° SSE 07:08:00 10° ENE visible
26 Oct 10.5 21:45:06 10° N 21:57:32 31° NE 22:16:22 10° ESE visible
27 Oct 10.2 00:07:58 10° NW 00:26:31 78° NNE 00:53:12 10° ESE visible
27 Oct 10.6 02:37:11 10° W 03:01:35 72° SSW 03:25:49 10° ESE visible
27 Oct 10.4 05:11:25 10° WSW 05:38:17 72° SSE 05:55:57 10° E visible
27 Oct 9.7 07:47:18 10° WSW 08:10:09 71° NW 08:22:11 10° NE visible
27 Oct 10.2 22:56:53 10° NW 23:12:22 59° NE 23:37:13 10° ESE visible
28 Oct 10.4 01:23:25 10° WNW 01:44:54 80° SSW 02:11:19 10° ESE visible
28 Oct 10.6 03:55:33 10° W 04:21:53 69° S 04:43:00 10° E visible
28 Oct 10.0 06:30:44 10° WSW 06:56:32 90° NNW 07:11:14 10° ENE visible
28 Oct 10.3 21:46:58 10° NNW 21:59:34 39° NE 22:20:02 10° ESE visible
29 Oct 10.2 00:10:53 10° WNW 00:29:09 87° NNE 00:56:05 10° ESE visible
29 Oct 10.6 02:40:34 10° W 03:04:52 70° S 03:29:08 10° ESE visible
29 Oct 10.3 05:14:31 10° WSW 05:41:29 77° SSE 05:59:20 10° ENE visible
29 Oct 9.8 07:50:09 10° WSW 08:12:40 60° NW 08:24:58 10° NE visible
29 Oct 10.1 22:59:30 10° NW 23:14:42 69° NE 23:40:07 10° ESE visible
30 Oct 10.5 01:26:42 10° W 01:48:00 75° SSW 02:14:26 10° ESE visible
30 Oct 10.5 03:58:51 10° WSW 04:25:13 71° S 04:46:26 10° E visible
30 Oct 10.0 06:33:33 10° WSW 06:59:19 80° NNW 07:14:18 10° NE visible
30 Oct 10.1 21:49:12 10° NNW 22:01:41 48° NE 22:23:18 10° ESE visible
